User: anonymous   Login
Location: Düngen
(52.0952°N, 10.0219°E)
Time: 09:06:23
(UTC+00:00)
Language:

CSL-04 Debris - Orbit

View from above orbital plane
View from above orbital plane
View from above satellite
View from above satellite

Ground track
Ground track

The orbit is defined by the following mean orbital elements,

1 25733U          26128.08689132 +.00000000 +00000-0 +18750-3 0 00003
2 25733  98.6839 172.3821 0012994 296.3218  63.6623 14.18908446    06
Epoch (UTC): 08 May 2026 02:05:07
Eccentricity: 0.0012994
inclination: 98.6839°
perigee height: 820 km
apogee height: 838 km
right ascension of ascending node: 172.3821°
argument of perigee: 296.3218°
revolutions per day: 14.18908446
mean anomaly at epoch: 63.6623°

The dashed part of the orbit path shows where the satellite is in the earth's shadow,  

DLR